TimeCDT,TemperatureF,Dew PointF,Humidity,Sea Level PressureIn,VisibilityMPH,Wind Direction,Wind SpeedMPH,Gust SpeedMPH,PrecipitationIn,Events,Conditions,WindDirDegrees,DateUTC
12:52 AM,26.1,21.9,84,30.42,10.0,WSW,6.9,-,N/A,,Clear,240,2013-10-25 05:52:00
1:52 AM,27.0,21.9,81,30.43,10.0,WSW,4.6,-,N/A,,Clear,240,2013-10-25 06:52:00
2:52 AM,26.1,21.9,84,30.44,10.0,WSW,5.8,-,N/A,,Clear,240,2013-10-25 07:52:00
3:52 AM,26.1,21.9,84,30.44,10.0,WSW,4.6,-,N/A,,Clear,240,2013-10-25 08:52:00
4:52 AM,26.1,21.9,84,30.46,10.0,WSW,3.5,-,N/A,,Clear,240,2013-10-25 09:52:00
5:52 AM,25.0,21.0,85,30.47,10.0,Calm,Calm,-,N/A,,Clear,0,2013-10-25 10:52:00
6:52 AM,21.9,19.9,92,30.48,10.0,Calm,Calm,-,N/A,,Clear,0,2013-10-25 11:52:00
7:52 AM,23.0,19.9,88,30.49,10.0,WSW,5.8,-,N/A,,Clear,240,2013-10-25 12:52:00
8:52 AM,32.0,27.0,82,30.50,10.0,SW,3.5,-,N/A,,Clear,220,2013-10-25 13:52:00
9:52 AM,37.9,30.0,73,30.51,10.0,SW,4.6,-,N/A,,Clear,230,2013-10-25 14:52:00
10:52 AM,46.0,30.0,54,30.49,10.0,WSW,9.2,-,N/A,,Clear,240,2013-10-25 15:52:00
11:52 AM,48.9,28.9,46,30.48,10.0,SW,9.2,-,N/A,,Clear,220,2013-10-25 16:52:00
12:52 PM,50.0,27.0,41,30.45,10.0,West,9.2,-,N/A,,Clear,260,2013-10-25 17:52:00
1:52 PM,53.1,25.0,34,30.41,10.0,WSW,12.7,19.6,N/A,,Clear,250,2013-10-25 18:52:00
2:52 PM,53.1,25.0,34,30.38,10.0,West,10.4,16.1,N/A,,Clear,260,2013-10-25 19:52:00
3:52 PM,53.1,23.0,31,30.35,10.0,WSW,10.4,-,N/A,,Clear,240,2013-10-25 20:52:00
4:52 PM,52.0,23.0,32,30.32,10.0,WSW,9.2,-,N/A,,Clear,240,2013-10-25 21:52:00
5:52 PM,48.9,23.0,36,30.31,10.0,SW,5.8,-,N/A,,Clear,220,2013-10-25 22:52:00
6:52 PM,43.0,25.0,49,30.30,10.0,SSW,8.1,-,N/A,,Clear,200,2013-10-25 23:52:00
7:52 PM,44.1,27.0,51,30.28,10.0,SSW,9.2,-,N/A,,Clear,200,2013-10-26 00:52:00
8:52 PM,44.1,27.0,51,30.25,10.0,SSW,12.7,-,N/A,,Clear,200,2013-10-26 01:52:00
9:52 PM,43.0,26.1,51,30.23,10.0,SSW,11.5,20.7,N/A,,Clear,200,2013-10-26 02:52:00
10:52 PM,42.1,26.1,53,30.22,10.0,SSW,13.8,20.7,N/A,,Clear,200,2013-10-26 03:52:00
11:52 PM,41.0,26.1,55,30.20,10.0,SSW,12.7,-,N/A,,Clear,200,2013-10-26 04:52:00